Location: Pittsburgh
(40.4410°N, 79.9960°W)
Time: 17:28:08
(UTC-04:00)

ARIANE 6 FM1 Upper Stage - Pass Details

Date: 12 March 2026
Orbit: 524 x 604 km, 62.0° (Epoch: 11 April)

Event Time Altitude Azimuth Distance (km) Brightness Sun altitude
Exits shadow 05:10:44 38° 84° (E) 841 3.9 -28.0°
Drops below altitude 10° 05:13:42 10° 49° (NE) 1,800 6.1 -27.5°
Sets 05:15:56 0° 43° (NE) 2,685 7.1 -27.1°
